[[{"header":{"parameterUnit":"m.s-1","parameterCategory":1,"la1":30.2992,"la2":30.254,"lo1":-89.0895,"lo2":-89.0443,"dy":0.0025,"dx":0.0025,"nx":19,"ny":19,"refTime":"2026-03-21T21:00:00:Z","depth":0,"parameterNumber":2,"parameterNumberName":"U-component_of_WINDS"},"data":[0,0,0,3.033,3.0334,3.0518,3.0519,3.0758,3.076,0,0,0,0,0,0,0,0,0,0,0,3.0276,3.0277,3.0329,3.0334,3.0518,3.0519,3.0758,3.076,0,0,0,0,0,0,0,0,0,0,0,3.0275,3.0277,3.0279,3.0335,3.0518,3.0519,3.0757,3.0617,0,0,0,0,0,0,0,0,0,0,3.0438,3.0388,3.0277,3.0279,3.0336,3.0517,3.0519,3.0611,3.0626,3.0676,0,3.0718,0,3.0743,3.0776,3.0777,0,0,0,3.0334,3.0375,3.0424,3.0279,3.0337,3.0517,3.0435,3.0619,3.0637,3.0696,3.0722,3.073,3.0747,3.0778,3.0779,3.1059,3.106,0,0,3.0324,3.031,3.0412,3.0436,3.0405,3.0429,3.0441,3.063,3.0657,3.0723,3.0736,3.0751,3.0779,3.0781,3.1058,3.1059,0,0,0,3.0295,3.0303,3.0347,3.0426,3.0458,3.0434,3.0448,3.0649,3.0664,3.0739,3.0754,3.0781,3.0784,3.1057,3.1059,3.1107,0,0,0,3.0289,3.0286,3.0342,3.0336,3.0455,3.0556,3.0463,3.0651,3.0673,3.0752,3.0781,3.0786,3.1055,3.1058,3.1103,3.1134,0,0,0,3.0264,3.0283,3.0309,3.0334,3.0413,3.0553,3.0579,3.0656,3.0682,3.0777,3.0787,3.1054,3.1057,3.1099,3.1127,3.1203,0,0,0,3.0234,3.0352,3.031,3.0448,3.0411,3.0581,3.0578,3.0706,3.0793,3.0782,3.1055,3.1058,3.1098,3.1123,3.1198,3.1263,3.1289,0,0,3.0375,3.0368,3.0451,3.0418,3.0592,3.0554,3.0736,3.0831,3.0854,3.099,3.0997,3.1105,3.1127,3.1202,3.1437,3.1457,0,0,0,3.0491,3.0549,3.0599,3.068,3.0753,3.0819,3.0887,3.0922,3.1038,3.092,3.1153,3.1166,3.1211,3.1243,3.126,3.1299,3.1072,3.1072,3.1072,3.0671,3.0692,3.083,3.0873,3.0952,3.102,3.1086,3.1145,3.1146,3.12,3.1241,3.1381,3.1418,3.1431,3.1471,3.1277,3.1277,3.1277,3.1278,3.088,3.0967,3.0962,3.1093,3.1116,3.1228,3.1298,3.1294,3.1402,3.1352,3.1393,3.1337,3.1452,3.1489,3.1281,3.1281,3.128,3.128,3.128,3.1,3.1046,3.1084,3.1203,3.1293,3.1333,3.1436,3.1454,3.1471,3.1511,3.1556,3.1555,3.1556,3.1531,3.1531,3.1532,3.1532,3.1533,3.1533,3.111,3.1152,3.1236,3.1323,3.1377,3.145,3.1519,3.1573,3.1638,3.1642,3.1643,3.1638,3.1459,3.1413,3.1541,3.1539,3.1538,3.1538,3.1537,3.1314,3.127,3.14,3.1453,3.1557,3.1644,3.1664,3.1773,3.182,3.1871,3.1857,3.1721,3.1717,3.1704,3.1666,3.1851,3.1851,3.1851,3.1851,3.1416,3.1414,3.155,3.1635,3.172,3.175,3.1897,3.1952,3.2002,3.2033,3.2009,3.196,3.1946,3.195,3.1931,3.1897,3.2136,3.2137,3.2137,3.1543,3.155,3.1671,3.1717,3.1798,3.1869,3.2007,3.2106,3.2154,3.2149,3.2058,3.2046,3.1968,3.1941,3.1935,3.1905,3.1842,0,0]},{"header":{"parameterUnit":"m.s-1","parameterCategory":1,"la1":30.2992,"la2":30.254,"lo1":-89.0895,"lo2":-89.0443,"dy":0.0025,"dx":0.0025,"nx":19,"ny":19,"refTime":"2026-03-21T21:00:00:Z","depth":0,"parameterNumber":3,"parameterNumberName":"V-component_of_WINDS"},"data":[0,0,0,2.5018,2.5019,2.5054,2.5054,2.5103,2.5104,0,0,0,0,0,0,0,0,0,0,0,2.5011,2.5012,2.5018,2.5019,2.5054,2.5054,2.5103,2.5104,0,0,0,0,0,0,0,0,0,0,0,2.5011,2.5012,2.5012,2.5019,2.5054,2.5054,2.5103,2.5075,0,0,0,0,0,0,0,0,0,0,2.504,2.5037,2.5012,2.5012,2.502,2.5054,2.5054,2.5074,2.5077,2.509,0,2.5103,0,2.5104,2.5107,2.5108,0,0,0,2.5016,2.5035,2.5041,2.5012,2.502,2.5054,2.5038,2.5075,2.5079,2.5094,2.5103,2.5105,2.5105,2.5108,2.5108,2.5194,2.5195,0,0,2.5014,2.5019,2.5039,2.5044,2.504,2.5037,2.5039,2.5077,2.5088,2.5103,2.5106,2.5106,2.5108,2.5109,2.5194,2.5195,0,0,0,2.5011,2.5018,2.5023,2.5042,2.5048,2.5038,2.504,2.5086,2.5087,2.5107,2.5106,2.5108,2.5109,2.5193,2.5194,2.5227,0,0,0,2.501,2.5016,2.5023,2.5026,2.5047,2.5068,2.5048,2.5085,2.5089,2.5106,2.5108,2.511,2.5193,2.5194,2.5225,2.5241,0,0,0,2.5008,2.5016,2.5022,2.5026,2.5042,2.5067,2.507,2.5085,2.5089,2.5108,2.511,2.5192,2.5194,2.5223,2.5238,2.5266,0,0,0,2.5007,2.5049,2.5023,2.5069,2.5041,2.5087,2.507,2.5103,2.5123,2.5109,2.5193,2.5194,2.5222,2.5236,2.5264,2.5292,2.5303,0,0,2.5063,2.5056,2.5083,2.5061,2.5112,2.5081,2.5137,2.515,2.5146,2.5178,2.518,2.5225,2.5238,2.5266,2.5366,2.5375,0,0,0,2.5103,2.5122,2.5135,2.5155,2.5167,2.5178,2.5182,2.5187,2.5214,2.5164,2.5242,2.525,2.5266,2.5279,2.5287,2.5301,2.52,2.52,2.52,2.5188,2.5183,2.5228,2.5227,2.5246,2.5251,2.5266,2.5273,2.526,2.5279,2.5289,2.535,2.5365,2.5371,2.5386,2.5302,2.5302,2.5302,2.5302,2.527,2.5297,2.5281,2.5319,2.5313,2.5344,2.535,2.5341,2.5369,2.5342,2.5356,2.5328,2.5382,2.5394,2.5305,2.5304,2.5304,2.5304,2.5304,2.5326,2.5338,2.5344,2.5373,2.5396,2.5393,2.5421,2.5414,2.5407,2.5421,2.5431,2.543,2.543,2.5426,2.5426,2.5427,2.5427,2.5427,2.5427,2.5382,2.5388,2.5413,2.543,2.5443,2.5458,2.5463,2.5474,2.5485,2.5478,2.5478,2.5464,2.5388,2.5369,2.543,2.543,2.5429,2.5429,2.5429,2.5468,2.5448,2.5487,2.55,2.5519,2.5543,2.5533,2.5558,2.5566,2.558,2.5564,2.5508,2.55,2.5494,2.5479,2.5564,2.5564,2.5564,2.5564,2.5516,2.5511,2.5551,2.5572,2.5591,2.5587,2.5631,2.5635,2.5636,2.5641,2.5628,2.5606,2.56,2.5596,2.5587,2.5573,2.5681,2.5681,2.5681,2.5569,2.5566,2.5606,2.5608,2.5623,2.5636,2.5677,2.5701,2.5698,2.5685,2.5645,2.564,2.5606,2.5595,2.5582,2.5569,2.5542,0,0]}]]